When you browse on this site, cookies collect data to enhance your experience and personalize the content and advertising you see.
Visit our Privacy Policy to learn more. By continuing to use the site, you agree to this use of cookies and data.
  • In Italy
  • List of Countries
  • For 7 days
  • Water Temperature
  • Satellite Maps
  • Weather Map
  • Weather Widgets
  • user-avatar
    Login

    Hourly Weather Lozenec

    Today, 19 February, Tuesday

    Time Temperature Precipitation Wind Pressure Humidity
    00:00 +8°C° 0 mm 1 mps 765 mmHg 75%
    01:00 +8°C° 0 mm 1 mps 765 mmHg 76%
    02:00 +8°C° 0 mm 1 mps 765 mmHg 76%
    03:00 +8°C° 0 mm 1 mps 765 mmHg 76%
    04:00 +7°C° 0 mm 1 mps 765 mmHg 77%
    05:00 +7°C° 0 mm 1 mps 764 mmHg 78%
    06:00 +8°C° 0 mm 1 mps 765 mmHg 78%
    07:00 +8°C° 0 mm 1 mps 765 mmHg 79%
    08:00 +8°C° 0 mm 2 mps 765 mmHg 80%
    09:00 +9°C° 0 mm 2 mps 765 mmHg 75%
    10:00 +10°C° 0 mm 2 mps 765 mmHg 70%
    11:00 +12°C° 0 mm 3 mps 765 mmHg 64%
    12:00 +12°C° 0 mm 3 mps 764 mmHg 63%
    13:00 +13°C° 0 mm 3 mps 764 mmHg 63%
    14:00 +14°C° 0 mm 3 mps 764 mmHg 58%
    15:00 +13°C° 0 mm 3 mps 764 mmHg 63%
    16:00 +12°C° 0 mm 4 mps 763 mmHg 67%
    17:00 +11°C° 0 mm 4 mps 763 mmHg 72%
    18:00 +10°C° 0 mm 4 mps 763 mmHg 77%
    19:00 +9°C° 0 mm 3 mps 763 mmHg 82%
    20:00 +8°C° 0 mm 3 mps 763 mmHg 87%
    21:00 +8°C° 0 mm 3 mps 763 mmHg 87%
    22:00 +8°C° 0 mm 3 mps 763 mmHg 87%
    23:00 +8°C° 0 mm 3 mps 763 mmHg 87%

    Tomorrow, 20 February, Wednesday

    Time Temperature Precipitation Wind Pressure Humidity
    00:00 +8°C° 0 mm 2 mps 762 mmHg 86%
    01:00 +7°C° 0 mm 2 mps 762 mmHg 86%
    02:00 +7°C° 0 mm 2 mps 762 mmHg 85%
    03:00 +7°C° 0 mm 2 mps 762 mmHg 83%
    04:00 +7°C° 0 mm 2 mps 762 mmHg 82%
    05:00 +7°C° 0 mm 2 mps 762 mmHg 80%
    06:00 +7°C° 0 mm 2 mps 761 mmHg 78%
    07:00 +7°C° 0 mm 2 mps 761 mmHg 75%
    08:00 +8°C° 0 mm 2 mps 761 mmHg 73%
    09:00 +10°C° 0 mm 2 mps 761 mmHg 67%
    10:00 +13°C° 0 mm 2 mps 761 mmHg 60%
    11:00 +15°C° 0 mm 2 mps 761 mmHg 54%
    12:00 +15°C° 0 mm 2 mps 761 mmHg 53%
    13:00 +16°C° 0 mm 1 mps 761 mmHg 52%
    14:00 +18°C° 0 mm 1 mps 760 mmHg 50%
    15:00 +16°C° 0 mm 1 mps 760 mmHg 53%
    16:00 +16°C° 0 mm 1 mps 760 mmHg 56%
    17:00 +15°C° 0 mm 1 mps 760 mmHg 59%
    18:00 +14°C° 0 mm 1 mps 760 mmHg 62%
    19:00 +13°C° 0 mm 1 mps 761 mmHg 65%
    20:00 +12°C° 0 mm 2 mps 761 mmHg 68%
    21:00 +10°C° 0 mm 2 mps 761 mmHg 68%
    22:00 +10°C° 0 mm 2 mps 761 mmHg 68%
    23:00 +10°C° 0 mm 3 mps 762 mmHg 67%

    Day after tomorrow, 21 February, Thursday

    Time Temperature Precipitation Wind Pressure Humidity
    00:00 +9°C° 0 mm 3 mps 762 mmHg 68%
    01:00 +8°C° 0 mm 4 mps 762 mmHg 68%
    02:00 +8°C° 0 mm 4 mps 763 mmHg 68%
    03:00 +7°C° 0 mm 4 mps 763 mmHg 69%
    04:00 +7°C° 0 mm 4 mps 763 mmHg 70%
    05:00 +6°C° 0 mm 4 mps 763 mmHg 71%
    06:00 +6°C° 0 mm 4 mps 763 mmHg 74%
    07:00 +6°C° 0 mm 4 mps 764 mmHg 77%
    08:00 +7°C° 0 mm 3 mps 764 mmHg 80%
    09:00 +8°C° 0 mm 3 mps 765 mmHg 79%
    10:00 +9°C° 0 mm 3 mps 765 mmHg 78%
    11:00 +9°C° 0 mm 3 mps 765 mmHg 76%
    12:00 +10°C° 0 mm 3 mps 765 mmHg 73%
    13:00 +10°C° 0 mm 2 mps 765 mmHg 70%
    14:00 +12°C° 0 mm 2 mps 765 mmHg 66%
    15:00 +10°C° 0 mm 2 mps 765 mmHg 67%
    16:00 +10°C° 0 mm 2 mps 765 mmHg 67%
    17:00 +11°C° 0 mm 1 mps 765 mmHg 68%
    18:00 +9°C° 0 mm 2 mps 765 mmHg 72%
    19:00 +8°C° 0 mm 2 mps 765 mmHg 77%
    20:00 +7°C° 0 mm 2 mps 765 mmHg 82%
    21:00 +7°C° 0 mm 2 mps 765 mmHg 82%
    22:00 +7°C° 0 mm 2 mps 765 mmHg 83%
    23:00 +7°C° 0 mm 2 mps 765 mmHg 84%

    22 February, Friday

    Time Temperature Precipitation Wind Pressure Humidity
    00:00 +7°C° 0 mm 2 mps 765 mmHg 84%
    01:00 +5°C° 0 mm 3 mps 764 mmHg 83%
    02:00 +5°C° 0 mm 3 mps 764 mmHg 83%
    03:00 +5°C° 0 mm 3 mps 763 mmHg 84%
    04:00 +5°C° 0 mm 3 mps 763 mmHg 85%
    05:00 +5°C° 0 mm 3 mps 762 mmHg 85%
    06:00 +5°C° 0 mm 3 mps 762 mmHg 84%
    07:00 +5°C° 0 mm 4 mps 761 mmHg 82%
    08:00 +6°C° 0 mm 4 mps 761 mmHg 80%
    09:00 +7°C° 0 mm 4 mps 760 mmHg 72%
    10:00 +10°C° 0 mm 4 mps 760 mmHg 64%
    11:00 +11°C° 0 mm 4 mps 760 mmHg 55%
    12:00 +9°C° 0.5 mm 5 mps 759 mmHg 61%
    13:00 +8°C° 0.5 mm 5 mps 759 mmHg 66%
    14:00 +7°C° 0.5 mm 5 mps 758 mmHg 71%
    15:00 +7°C° 0.3 mm 5 mps 758 mmHg 73%
    16:00 +7°C° 0.3 mm 5 mps 757 mmHg 74%
    17:00 +8°C° 0.3 mm 5 mps 757 mmHg 75%
    18:00 +7°C° 0.1 mm 5 mps 757 mmHg 78%
    19:00 +7°C° 0.1 mm 5 mps 758 mmHg 81%
    20:00 +7°C° 0.1 mm 5 mps 758 mmHg 85%
    21:00 +4°C° 0.5 mm 7 mps 759 mmHg 85%
    22:00 +2°C° 0.5 mm 10 mps 759 mmHg 86%
    23:00 0°C° 0.5 mm 12 mps 760 mmHg 86%

    23 February, Saturday

    Time Temperature Precipitation Wind Pressure Humidity
    00:00 -1°C° 0.4 mm 12 mps 761 mmHg 85%
    01:00 -3°C° 0.4 mm 12 mps 762 mmHg 85%
    02:00 -5°C° 0.4 mm 13 mps 762 mmHg 84%
    03:00 -6°C° 0.6 mm 13 mps 763 mmHg 86%
    04:00 -7°C° 0.6 mm 13 mps 764 mmHg 87%
    05:00 -8°C° 0.6 mm 12 mps 764 mmHg 89%
    06:00 -8°C° 0.4 mm 12 mps 765 mmHg 84%
    07:00 -8°C° 0.4 mm 12 mps 766 mmHg 79%
    08:00 -8°C° 0.4 mm 12 mps 767 mmHg 74%
    09:00 -8°C° 0.1 mm 11 mps 767 mmHg 73%
    10:00 -8°C° 0.1 mm 11 mps 768 mmHg 73%
    11:00 -7°C° 0.1 mm 11 mps 768 mmHg 72%
    12:00 -7°C° 0.1 mm 10 mps 768 mmHg 70%
    13:00 -7°C° 0.1 mm 10 mps 767 mmHg 68%
    14:00 -5°C° 0.1 mm 10 mps 767 mmHg 65%
    15:00 -5°C° 0.1 mm 10 mps 767 mmHg 65%
    16:00 -5°C° 0.1 mm 10 mps 767 mmHg 64%
    17:00 -7°C° 0.1 mm 10 mps 767 mmHg 63%
    18:00 -7°C° 0.1 mm 10 mps 767 mmHg 64%
    19:00 -7°C° 0.1 mm 10 mps 767 mmHg 66%
    20:00 -7°C° 0.1 mm 10 mps 767 mmHg 67%
    21:00 -7°C° 0.1 mm 10 mps 767 mmHg 68%
    22:00 -7°C° 0.1 mm 10 mps 767 mmHg 69%
    23:00 -7°C° 0.1 mm 10 mps 767 mmHg 70%

    24 February, Sunday

    Time Temperature Precipitation Wind Pressure Humidity
    00:00 -7°C° 0.2 mm 10 mps 766 mmHg 71%
    01:00 -7°C° 0.2 mm 10 mps 766 mmHg 72%
    02:00 -7°C° 0.2 mm 10 mps 766 mmHg 73%
    03:00 -7°C° 0.2 mm 10 mps 765 mmHg 73%
    04:00 -8°C° 0.2 mm 10 mps 765 mmHg 74%
    05:00 -8°C° 0.2 mm 10 mps 765 mmHg 74%
    06:00 -8°C° 0.2 mm 11 mps 765 mmHg 75%
    07:00 -8°C° 0.2 mm 11 mps 765 mmHg 76%
    08:00 -8°C° 0.2 mm 11 mps 765 mmHg 76%
    09:00 -7°C° 0.3 mm 11 mps 765 mmHg 76%
    10:00 -7°C° 0.3 mm 12 mps 765 mmHg 76%
    11:00 -6°C° 0.3 mm 12 mps 765 mmHg 76%
    12:00 -5°C° 0.3 mm 12 mps 765 mmHg 75%
    13:00 -5°C° 0.3 mm 12 mps 764 mmHg 74%
    14:00 -3°C° 0.3 mm 12 mps 764 mmHg 72%
    15:00 -3°C° 0.3 mm 12 mps 764 mmHg 73%
    16:00 -3°C° 0.3 mm 11 mps 764 mmHg 74%
    17:00 -3°C° 0.3 mm 11 mps 764 mmHg 75%
    18:00 -4°C° 0.3 mm 11 mps 764 mmHg 76%
    19:00 -4°C° 0.3 mm 11 mps 765 mmHg 76%
    20:00 -4°C° 0.3 mm 11 mps 765 mmHg 77%
    21:00 -4°C° 0.3 mm 11 mps 765 mmHg 78%
    22:00 -5°C° 0.3 mm 12 mps 765 mmHg 78%
    23:00 -5°C° 0.3 mm 12 mps 765 mmHg 79%
    Show more